Tracking 31027 objects as of 19-Jul-2025
HD Live streaming from Space Station
objects crossing your sky now

SL-12 R/B(AUX MOTOR)

Track SL-12 R/B(AUX MOTOR) now!
10-day predictions


NORAD ID: 23402
Int'l Code: 1994-076G
Perigee: 596.7 km
Apogee: 18,736.4 km
Inclination: 65.2 °
Period: 336.9 minutes
Semi major axis: 16037 km
RCS: 0.7371 m2 (medium)
Launch date: November 20, 1994
Source: Commonwealth of Independent States (former USSR) (CIS)
Launch site: TYURATAM MISSILE AND SPACE COMPLEX (TTMTR)

Note: This is a ROCKET BODY
Your satellite tracking list
COSMOS 2251 DEB
Track 1 satellite(s)




NASA's NSSDC Master Catalog

Two Line Element Set (TLE):
1 23402U 94076G   25197.79373885  .00000117  00000-0  44258-3 0  9996
2 23402  65.1567  59.3481 5655392 137.8124 283.4273  4.27461856475406
Source of the keplerian elements: AFSPC